Location: Unspecified
(43.8044°N, 11.0278°E)
Time: 15:53:29
(UTC+02:00)

Cosmos 1674 - Visible Passes

Search period start: 01 August 2014 00:00
Search period end: 11 August 2014 00:00
Orbit: 515 x 544 km, 82.5° (Epoch: 31 July)

Date Brightness Start Highest point End Pass type
(mag) Time Alt. Az. Time Alt. Az. Time Alt. Az.
01 Aug 5.6 03:20:05 10° NE 03:21:58 13° ENE 03:23:50 10° E visible
01 Aug 3.0 04:54:33 10° NNW 04:58:16 46° W 05:01:55 10° SSW visible
02 Aug 5.7 03:09:38 10° NE 03:11:14 12° ENE 03:12:51 10° E visible
02 Aug 2.9 04:43:50 10° NNW 04:47:35 50° W 04:50:53 12° SSW visible
03 Aug 5.7 02:59:14 10° NE 03:00:30 11° ENE 03:01:47 10° E visible
03 Aug 2.8 04:33:07 10° NNW 04:36:53 54° W 04:39:29 19° SSW visible
04 Aug 5.8 02:48:59 10° NE 02:49:46 11° ENE 02:50:33 10° E visible
04 Aug 2.7 04:22:24 10° NNW 04:26:12 59° W 04:28:08 26° SSW visible
05 Aug 2.6 04:11:40 10° NNW 04:15:30 65° W 04:16:52 36° SSW visible
06 Aug 2.6 04:00:57 10° NNW 04:04:47 71° W 04:05:38 50° SSW visible
07 Aug 2.5 03:50:13 10° NNW 03:54:04 77° W 03:54:28 67° SSW visible
08 Aug 2.5 03:39:30 10° N 03:43:19 83° W 03:43:19 83° W visible
09 Aug 2.8 03:28:46 10° N 03:32:13 71° N 03:32:13 71° N visible
10 Aug 3.2 03:18:02 10° N 03:21:08 56° N 03:21:08 56° N visible
